Regional Weather Roundup
Issued by NWS Lake Charles, LA

Home | Current Version | Previous Version | Text Only | Print | Product List | Glossary On
Versions: 1 2 3 4 5 6 7 8 9 10 11 12 13 14 15 16 17 18 19 20 21 22 23 24 25 26 27 28 29 30 31 32 33 34 35 36 37 38 39 40 41 42 43 44 45 46 47 48 49 50
000
ASUS44 KLCH 051010
RWRLCH
RWRLCH
REGIONAL WEATHER ROUNDUP
NATIONAL WEATHER SERVICE LAKE CHARLES LA
500 AM CDT SAT SEP 05 2015

Note: "fair" indicates few or no clouds below 12,000 feet with no
significant weather and/or obstructions to visibility.


ACROSS SOUTHEAST TEXAS

CITY           SKY/WX    TMP DP  RH WIND       PRES   REMARKS
BEAUMONT       CLEAR     77  76  96 CALM      29.98R
BEAUMONT CITY    N/A     75  74  98 CALM      29.99S
ORANGE         MOSUNNY  N/A N/A N/A CALM      30.00S HAZE
JASPER         PTCLDY    75  74  96 CALM      30.03R FOG
$$

ACROSS CENTRAL LOUISIANA

CITY           SKY/WX    TMP DP  RH WIND       PRES   REMARKS
LEESVILLE      CLEAR     76  74  95 S3        29.99R
FULLERTON      PTSUNNY   73  72  96 CALM      29.98R
ALEXANDRIA INT CLEAR     74  74 100 CALM      29.98R
ESLER FIELD    CLEAR     74  70  87 CALM      30.00R
DERIDDER         N/A     75  73  95 CALM      30.02R
OAKDALE        FOG       72  71  96 CALM      30.00S VSB 3/4
OPELOUSAS        N/A    N/A N/A N/A CALM      30.00S HAZE
$$

ACROSS SOUTHWEST AND SOUTH CENTRAL LOUISIANA

CITY           SKY/WX    TMP DP  RH WIND       PRES   REMARKS
SULPHUR        MOSUNNY   76  76  99 CALM      30.00R
LAKE CHARLES   PTCLDY    77  76  96 CALM      29.99R
CHENNAULT INT  MOCLDY    75  75  99 CALM      30.00R
CAMERON PHI    MOSUNNY   82  77  83 SW7       30.01S
DEQUINCY         N/A     72  72 100 CALM      30.00R
JENNINGS       NOT AVBL
LAFAYETTE      PTCLDY    76  74  93 CALM      30.00S
NEW IBERIA     PTCLDY    76  74  93 CALM      30.00S FOG
ABBEVILLE      FOG       72  72 100 CALM      30.00S VSB 1/2
PATTERSON      CLEAR     73  72  94 CALM      30.01S
SALT POINT       N/A     79  78  97 CALM      29.98R
$$

SELECTED SITES ACROSS THE REGION

CITY           SKY/WX    TMP DP  RH WIND       PRES   REMARKS
HOUSTON BUSH   PTCLDY    76  75  97 CALM      29.98R
HOUSTON HOBBY  PTCLDY    78  76  93 CALM      29.97R
GALVESTON      CLEAR     84  77  79 S10       29.98S
COLLEGE STAT   CLEAR     76  75  97 S5        29.98S
CONROE         PTCLDY    73  70  90 CALM      29.99S
HUNTSVILLE     CLEAR     77  75  93 S3        29.99S
LUFKIN         CLEAR     73  72  96 CALM      29.99R
SHREVEPORT     CLEAR     76  73  91 CALM      29.99R
MONROE         CLEAR     73  72  96 CALM      30.00R
NATCHEZ MS     CLEAR     73  70  88 CALM      30.02R
BATON ROUGE    CLEAR     75  73  93 CALM      30.00R
N.O. INTL ARPT PTCLDY    77  74  90 CALM      30.00R
SLIDELL        CLEAR     73  72  96 CALM      29.99S
$$

MARINE REPORTS

STATION/POSITION TIME  TEMP    WIND        PRES    VSBY  WAVE
                       AIR SEA DIR/SP/G                  HT/PER
                 (UTC) (F)     (DEG/KT/KT) (MB)    (MI)  (FT/S)
BUOY 30 S HIGH I 0950   84 85  170/ 12/ 14 1015.0R         2/ 6
SEA RIM ST PARK  1000   83     190/  9/ 11 1015.8R
PORT ARTHUR      0900      87  180/  2/  3 1015.2R
SABINE PASS N    0900   82 85  200/  5/  8 1015.3R
TEXAS POINT      NOT AVBL
CALCASIEU PASS   0900   84 85  220/  9/ 12 1014.4R
LK CHARLES BEACH 0900   78 87                N/A
MARSH ISLAND     0900   83     250/  5/  8   N/A           0
FRESH WATER LOCK 0900   81 85  210/  4/  5 1015.5R
AMERADA PASS     0900   80 85     CALM     1015.4R
$$



USA.gov is the U.S. government's official web portal to all federal, state and local government web resources and services.